Ridgecrest, CA (93555)

6:31 PM PDT on September 03, 2015 (GMT -0700)
APRSWXNET | | Change Station
CLOSE
Current Station
Personal Weather Station
Location: Ridgecrest, CA
Elevation: 2391 ft
Nearby Weather Stations

Elev 2391 ft 35.60 °N, 117.70 °W | Updated 24 minutes ago

Clear
Clear
87 °F
Feels Like 83 °F
N
12
Wind Variable Wind from SW
Gusts 21.0 mph

Today
High -- | Low -- °F
--% Chance of Precip.
Yesterday
High -- | Low -- °F
Precip. -- in
6:24 AM 7:15 PM
Waning Gibbous, 65% visible
Pressure 29.67 in
Visibility 10.0 miles
Clouds Few 28000 ft
Heat Index 83 °F
Dew Point 32 °F
Humidity 14%
Rainfall in
Snow Depth Not available.
UV 1 out of 12
Pollen 8.80 out of 12
Air Quality Not available.
Flu Activity Not available.
METAR KNID 040056Z 17019G26KT 10SM FEW280 32/M01 A2973 RMK AO2 PK WND 17028/0021 SLP045 T03171006 $
Pressure 29.67 in
Visibility 10.0 miles
Clouds Few 28000 ft
Heat Index 83 °F
Dew Point 32 °F
Humidity 14%
Rainfall in
Snow Depth Not available.
UV 1 out of 12
Pollen 8.80 out of 12
Air Quality Not available.
Flu Activity Not available.
METAR KNID 040056Z 17019G26KT 10SM FEW280 32/M01 A2973 RMK AO2 PK WND 17028/0021 SLP045 T03171006 $

10-Day Weather Forecast

×

Almanac

Astronomy

Sep. 03, 2015 Rise Set
Actual Time
Civil Twilight
Nautical Twilight
Astronomical Twilight
Moon
Length of Visible Light
Length of Day
Tomorrow will be .
, % of the Moon is Illuminated

Today's Extremes

State Highs State Lows

Community

WunderPhotos

Upload Photos

1,852,086 photos uploaded!

WunderBlogs® & News

Nearby

Air Quality

  Air Quality AQ Index Pollutant
Not available.

Snow Depth

Station Depth Elevation

Earthquake Activity

City Distance Mag. Time & Date
Minimum magnitude displayed is 2.5.

Coastal Water Temperatures

Place Temperature

Stations

Nearby Weather Stations

Station Location Temp. Windchill Dew Point Humidity Wind Precip. Elev Updated Type